Mojave, CA

6:39 PM PST on December 06, 2019 (GMT -0800)
Mojave

Weather History for KMHV - October, 2019

Change the Weather History Date:

Sunday, October 20, 2019

  Actual Average Record
Temperature  
Mean Temperature 65 °F -  
Max Temperature 75 °F 77 °F 91 °F (2003)
Min Temperature 55 °F 48 °F 38 °F (1972)
Growing Degree Days 15 (Base 50)    
Moisture  
Dew Point 39 °F    
Average Humidity 42    
Maximum Humidity 59    
Minimum Humidity 19    
Precipitation  
Precipitation 0.00 in - - ()
Sea Level Pressure  
Sea Level Pressure 30.03 in    
Wind  
Wind Speed 21 mph (NW)    
Max Wind Speed 39 mph    
Max Gust Speed 53 mph    
Visibility 10 miles    
Events      
Averages and records for this station are not official NWS values.
T = Trace of Precipitation, MM = Missing Value Source: NWS Daily Summary

Daily Weather History Graph

Daily Weather History Graph

Search for Another Location

Airport or City:

Astronomy

Oct. 20, 2019 Rise Set
Actual Time 7:02 AM PDT 6:11 PM PDT
Civil Twilight 6:37 AM PDT 6:37 PM PDT
Nautical Twilight 6:07 AM PDT 7:06 PM PDT
Astronomical Twilight 5:38 AM PDT 7:36 PM PDT
Moon 11:34 PM PDT (10/20) 1:25 PM PDT (10/20)
Length of Visible Light 12h 00m
Length of Day
11h 08m
Waning Gibbous, 58% of the Moon is Illuminated
Oct 20
Waning Gibbous
Oct 21
Last Quarter
Oct 27
New
Nov 4
First Quarter
Nov 12
Full

Hourly Weather History & Observations

Time (PDT) Temp. Dew Point Humidity Pressure Visibility Wind Dir Wind Speed Gust Speed Precip Events Conditions
12:00 AM 57.2 °F 39.2 °F 51% 29.90 in 10.0 mi West 39.1 mph 46.0 mph N/A   Clear
12:20 AM 57.2 °F 39.2 °F 51% 29.91 in 10.0 mi West 39.1 mph 51.8 mph N/A   Clear
12:40 AM 59.0 °F 39.2 °F 48% 29.92 in 10.0 mi WNW 39.1 mph 52.9 mph N/A   Clear
1:00 AM 62.6 °F 35.6 °F 37% 29.92 in 10.0 mi WNW 26.5 mph 43.7 mph N/A   Clear
1:20 AM 59.0 °F 39.2 °F 48% 29.91 in 10.0 mi West 35.7 mph 42.6 mph N/A   Clear
1:40 AM 57.2 °F 39.2 °F 51% 29.90 in 10.0 mi West 33.4 mph 46.0 mph N/A   Clear
2:00 AM 59.0 °F 39.2 °F 48% 29.91 in 10.0 mi WNW 28.8 mph 42.6 mph N/A   Clear
2:20 AM 60.8 °F 35.6 °F 39% 29.93 in 10.0 mi NW 25.3 mph 42.6 mph N/A   Clear
2:40 AM 60.8 °F 37.4 °F 42% 29.93 in 10.0 mi NW 27.6 mph 40.3 mph N/A   Clear
3:00 AM 59.0 °F 39.2 °F 48% 29.93 in 10.0 mi NW 29.9 mph 39.1 mph N/A   Clear
3:20 AM 59.0 °F 39.2 °F 48% 29.93 in 10.0 mi WNW 28.8 mph 36.8 mph N/A   Clear
3:40 AM 59.0 °F 37.4 °F 45% 29.92 in 10.0 mi NW 28.8 mph 39.1 mph N/A   Clear
4:20 AM 59.0 °F 39.2 °F 48% 29.93 in 10.0 mi NW 32.2 mph 41.4 mph N/A   Clear
4:40 AM 59.0 °F 39.2 °F 48% 29.94 in 10.0 mi NW 26.5 mph 36.8 mph N/A   Clear
5:00 AM 57.2 °F 41.0 °F 55% 29.95 in 10.0 mi WNW 24.2 mph 35.7 mph N/A   Clear
5:20 AM 57.2 °F 41.0 °F 55% 29.96 in 10.0 mi WNW 20.7 mph 32.2 mph N/A   Clear
5:40 AM 57.2 °F 42.8 °F 59% 29.97 in 10.0 mi NW 20.7 mph 29.9 mph N/A   Clear
6:00 AM 57.2 °F 41.0 °F 55% 29.98 in 10.0 mi NW 13.8 mph 21.9 mph N/A   Clear
6:20 AM 57.2 °F 42.8 °F 59% 29.99 in 10.0 mi WNW 17.3 mph - N/A   Clear
6:40 AM 57.2 °F 42.8 °F 59% 30.00 in 10.0 mi WNW 13.8 mph 20.7 mph N/A   Clear
7:00 AM 55.4 °F 41.0 °F 58% 30.01 in 10.0 mi Calm Calm 12.7 mph N/A   Clear
7:20 AM 57.2 °F 41.0 °F 55% 30.02 in 10.0 mi WNW 6.9 mph 13.8 mph N/A   Clear
7:40 AM 57.2 °F 42.8 °F 59% 30.02 in 10.0 mi NW 20.7 mph - N/A   Clear
8:00 AM 59.0 °F 42.8 °F 55% 30.03 in 10.0 mi NW 15.0 mph 21.9 mph N/A   Clear
8:20 AM 60.8 °F 42.8 °F 52% 30.05 in 10.0 mi WNW 10.4 mph - N/A   Clear
8:40 AM 62.6 °F 42.8 °F 48% 30.06 in 10.0 mi WNW 9.2 mph - N/A   Clear
9:00 AM 62.6 °F 41.0 °F 45% 30.07 in 10.0 mi East 8.1 mph - N/A   Clear
9:20 AM 60.8 °F 41.0 °F 48% 30.09 in 10.0 mi East 5.8 mph - N/A   Clear
9:40 AM 62.6 °F 39.2 °F 42% 30.09 in 10.0 mi SE 4.6 mph - N/A   Clear
10:00 AM 62.6 °F 39.2 °F 42% 30.10 in 10.0 mi Variable 4.6 mph - N/A   Clear
10:20 AM 64.4 °F 39.2 °F 40% 30.10 in 10.0 mi SE 4.6 mph - N/A   Clear
10:40 AM 64.4 °F 39.2 °F 40% 30.10 in 10.0 mi SE 6.9 mph - N/A   Clear
11:00 AM 66.2 °F 39.2 °F 37% 30.10 in 10.0 mi Calm Calm - N/A   Clear
11:20 AM 68.0 °F 35.6 °F 30% 30.09 in 10.0 mi NE 5.8 mph - N/A   Clear
11:40 AM 69.8 °F 35.6 °F 28% 30.08 in 10.0 mi NE 8.1 mph - N/A   Clear
12:00 PM 69.8 °F 35.6 °F 28% 30.08 in 10.0 mi North 8.1 mph - N/A   Clear
12:20 PM 71.6 °F 37.4 °F 29% 30.08 in 10.0 mi NNE 10.4 mph - N/A   Clear
12:40 PM 71.6 °F 37.4 °F 29% 30.08 in 10.0 mi NE 8.1 mph - N/A   Clear
1:00 PM 71.6 °F 33.8 °F 25% 30.08 in 10.0 mi East 8.1 mph 15.0 mph N/A   Clear
1:20 PM 71.6 °F 32.0 °F 23% 30.07 in 10.0 mi ENE 6.9 mph 15.0 mph N/A   Clear
1:40 PM 71.6 °F 30.2 °F 22% 30.06 in 10.0 mi NE 8.1 mph 13.8 mph N/A   Clear
2:00 PM 73.4 °F 28.4 °F 19% 30.05 in 10.0 mi Variable 6.9 mph 13.8 mph N/A   Clear
2:40 PM 73.4 °F 30.2 °F 20% 30.04 in 10.0 mi ENE 5.8 mph - N/A   Clear
3:00 PM 73.4 °F 30.2 °F 20% 30.04 in 10.0 mi Calm Calm - N/A   Clear
3:20 PM 75.2 °F 41.0 °F 29% 30.03 in 10.0 mi West 10.4 mph 17.3 mph N/A   Clear
3:40 PM 73.4 °F 41.0 °F 31% 30.03 in 10.0 mi WNW 11.5 mph - N/A   Clear
4:00 PM 73.4 °F 44.6 °F 36% 30.04 in 10.0 mi West 16.1 mph - N/A   Clear
4:20 PM 71.6 °F 44.6 °F 38% 30.04 in 10.0 mi West 17.3 mph - N/A   Clear
4:40 PM 71.6 °F 44.6 °F 38% 30.04 in 10.0 mi West 16.1 mph - N/A   Clear
5:00 PM 71.6 °F 42.8 °F 35% 30.03 in 10.0 mi West 12.7 mph 18.4 mph N/A   Clear
5:20 PM 69.8 °F 42.8 °F 38% 30.02 in 10.0 mi WNW 13.8 mph - N/A   Clear
5:40 PM 68.0 °F 42.8 °F 40% 30.03 in 10.0 mi WNW 16.1 mph - N/A   Clear
6:00 PM 66.2 °F 42.8 °F 43% 30.03 in 10.0 mi WNW 13.8 mph - N/A   Clear
6:20 PM 64.4 °F 41.0 °F 42% 30.03 in 10.0 mi WNW 11.5 mph - N/A   Clear
6:40 PM 64.4 °F 39.2 °F 40% 30.04 in 10.0 mi WNW 12.7 mph - N/A   Clear
7:00 PM 64.4 °F 39.2 °F 40% 30.05 in 10.0 mi WNW 12.7 mph - N/A   Clear
7:20 PM 62.6 °F 39.2 °F 42% 30.05 in 10.0 mi WNW 12.7 mph - N/A   Clear
7:40 PM 62.6 °F 39.2 °F 42% 30.06 in 10.0 mi WNW 12.7 mph - N/A   Clear
8:00 PM 62.6 °F 39.2 °F 42% 30.06 in 10.0 mi WNW 12.7 mph - N/A   Clear
8:20 PM 62.6 °F 41.0 °F 45% 30.07 in 10.0 mi WNW 11.5 mph - N/A   Clear
8:40 PM 62.6 °F 41.0 °F 45% 30.07 in 10.0 mi WNW 12.7 mph - N/A   Clear
9:00 PM 62.6 °F 41.0 °F 45% 30.08 in 10.0 mi WNW 10.4 mph - N/A   Clear
9:20 PM 60.8 °F 41.0 °F 48% 30.08 in 10.0 mi WNW 11.5 mph - N/A   Clear
10:00 PM 60.8 °F 41.0 °F 48% 30.09 in 10.0 mi WNW 11.5 mph - N/A   Clear
10:20 PM 60.8 °F 39.2 °F 45% 30.09 in 10.0 mi NW 10.4 mph - N/A   Clear
10:40 PM 59.0 °F 37.4 °F 45% 30.10 in 10.0 mi NW 9.2 mph - N/A   Clear
11:00 PM 59.0 °F 37.4 °F 45% 30.10 in 10.0 mi Calm Calm - N/A   Clear
11:20 PM 59.0 °F 37.4 °F 45% 30.10 in 10.0 mi NW 10.4 mph - N/A   Clear
11:40 PM 59.0 °F 35.6 °F 42% 30.10 in 10.0 mi Variable 3.5 mph - N/A   Clear